[TLELIST] Archives

 

[TLELIST] Current TLEs

May 31st 2025 PDT

HST 1 20580U 90037B 25151.22968728 .00004569 00000-0 16895-3 0 9998 2 20580 28.4662 159.8447 0002273 258.9910 101.0429 15.25137597730351 ISS (ZARYA) 1 25544U 98067A 25151.11410582 .00011386 00000-0 20806-3 0 9994 2 25544 51.6367 31.6753 0001886 170.5276 189.5748 15.49878952512510 CXO 1 25867U 99040B 25153.56825561 .00000405 00000-0 00000-0 0 9993 2 25867 49.2477 130.2915 8447311 309.3834 359.8599 0.37807541 15887 ...Continue Reading

[TLELIST] Current TLEs

May 31st 2025 PDT

HST 1 20580U 90037B 25151.22968728 .00004569 00000-0 16895-3 0 9998 2 20580 28.4662 159.8447 0002273 258.9910 101.0429 15.25137597730351 ISS (ZARYA) 1 25544U 98067A 25151.11410582 .00011386 00000-0 20806-3 0 9994 2 25544 51.6367 31.6753 0001886 170.5276 189.5748 15.49878952512510 CXO 1 25867U 99040B 25153.56825561 .00000405 00000-0 00000-0 0 9993 2 25867 49.2477 130.2915 8447311 309.3834 359.8599 0.37807541 15887 ...Continue Reading

[TLELIST] Current TLEs

May 30th 2025 PDT

HST 1 20580U 90037B 25150.18270335 .00005242 00000-0 19509-3 0 9996 2 20580 28.4662 166.9401 0002312 245.0616 114.9738 15.25128963730199 ISS (ZARYA) 1 25544U 98067A 25150.47972801 .00015590 00000-0 28192-3 0 9996 2 25544 51.6388 34.8123 0002030 163.3808 254.8486 15.49865741512418 CXO 1 25867U 99040B 25150.92233503 .00000453 00000-0 00000-0 0 9992 2 25867 49.1909 130.4136 8453244 309.3333 359.6983 0.37804334 15870 ...Continue Reading

[TLELIST] Current TLEs

May 30th 2025 PDT

HST 1 20580U 90037B 25150.18270335 .00005242 00000-0 19509-3 0 9996 2 20580 28.4662 166.9401 0002312 245.0616 114.9738 15.25128963730199 ISS (ZARYA) 1 25544U 98067A 25150.47972801 .00015590 00000-0 28192-3 0 9996 2 25544 51.6388 34.8123 0002030 163.3808 254.8486 15.49865741512418 CXO 1 25867U 99040B 25150.92233503 .00000453 00000-0 00000-0 0 9992 2 25867 49.1909 130.4136 8453244 309.3333 359.6983 0.37804334 15870 ...Continue Reading

[TLELIST] Current TLEs

May 29th 2025 PDT

HST 1 20580U 90037B 25148.74308956 .00004405 00000-0 16272-3 0 9990 2 20580 28.4661 176.6963 0002399 226.3913 133.6482 15.25113950729716 ISS (ZARYA) 1 25544U 98067A 25149.19864947 .00011267 00000-0 20642-3 0 9993 2 25544 51.6390 41.1568 0002109 154.3269 311.4671 15.49816822512213 CXO 1 25867U 99040B 25150.92233503 .00000453 00000-0 00000-0 0 9992 2 25867 49.1909 130.4136 8453244 309.3333 359.6983 0.37804334 15870 ...Continue Reading

[TLELIST] Current TLEs

May 28th 2025 PDT

HST 1 20580U 90037B 25147.43433874 .00003884 00000-0 14256-3 0 9993 2 20580 28.4666 185.5650 0002452 210.5005 149.5447 15.25102637729515 ISS (ZARYA) 1 25544U 98067A 25148.17144067 .00010950 00000-0 20102-3 0 9993 2 25544 51.6387 46.2443 0002189 151.9621 338.9406 15.49791589512054 CXO 1 25867U 99040B 25150.92233503 .00000453 00000-0 00000-0 0 9992 2 25867 49.1909 130.4136 8453244 309.3333 359.6983 0.37804334 15870 ...Continue Reading

[TLELIST] Current TLEs

May 28th 2025 PDT

HST 1 20580U 90037B 25147.43433874 .00003884 00000-0 14256-3 0 9993 2 20580 28.4666 185.5650 0002452 210.5005 149.5447 15.25102637729515 ISS (ZARYA) 1 25544U 98067A 25148.17144067 .00010950 00000-0 20102-3 0 9993 2 25544 51.6387 46.2443 0002189 151.9621 338.9406 15.49791589512054 CXO 1 25867U 99040B 25150.92233503 .00000453 00000-0 00000-0 0 9992 2 25867 49.1909 130.4136 8453244 309.3333 359.6983 0.37804334 15870 ...Continue Reading

[TLELIST] Current TLEs

May 27th 2025 PDT

HST 1 20580U 90037B 25145.47119615 .00004519 00000-0 16725-3 0 9998 2 20580 28.4672 198.8675 0002572 187.4840 172.5716 15.25088606729219 ISS (ZARYA) 1 25544U 98067A 25147.20450743 .00010885 00000-0 20003-3 0 9994 2 25544 51.6384 51.0343 0002206 149.5344 343.0812 15.49769564511908 CXO 1 25867U 99040B 25148.27720805 .00000466 00000-0 00000-0 0 9997 2 25867 49.1278 130.5537 8458673 309.2608 359.6903 0.37806381 15876 ...Continue Reading

[TLELIST] Current TLEs

May 26th 2025 PDT

HST 1 20580U 90037B 25145.47119615 .00004519 00000-0 16725-3 0 9998 2 20580 28.4672 198.8675 0002572 187.4840 172.5716 15.25088606729219 ISS (ZARYA) 1 25544U 98067A 25145.82661484 .00010926 00000-0 20097-3 0 9995 2 25544 51.6367 57.8636 0002082 149.0639 211.0473 15.49737512511693 CXO 1 25867U 99040B 25148.27720805 .00000466 00000-0 00000-0 0 9997 2 25867 49.1278 130.5537 8458673 309.2608 359.6903 0.37806381 15876 ...Continue Reading

[TLELIST] Current TLEs

May 25th 2025 PDT

HST 1 20580U 90037B 25144.55505639 .00004785 00000-0 17763-3 0 9999 2 20580 28.4675 205.0751 0002612 177.6256 182.4351 15.25081200729077 ISS (ZARYA) 1 25544U 98067A 25145.18176751 .00009555 00000-0 17689-3 0 9991 2 25544 51.6367 61.0572 0002106 146.1635 213.9488 15.49722006511598 CXO 1 25867U 99040B 25148.27644260 .00000466 00000-0 00000+0 0 9996 2 25867 49.1277 130.5537 8458679 309.2610 359.5856 0.37806053 27026 ...Continue Reading
  • This mailing list is a public mailing list - anyone may join or leave, at any time.
  • This mailing list is announce-only.

International Space Station (ISS) / Hubble Space Telescope (HST) / Chandra X-Ray Observatory Orbital Data via EMAIL

Privacy Policy:

Private list